This demonstration page uses our WeatherBlox Daily Observations layout. Learn more.

Left ArrowRight Arrow

Hourly Observations for November 28, 2015

Temp ( °F °C ) Dew Point ( °F °C ) Humidity (%) Winds ( mph kmh ) Pressure ( in mb ) Visibility ( mi km ) Precip ( " mm )
12:51 am 00:51 Clear 38 3.3 23 -5 55 55 N N/A 29.94 1014 10 16.0934 N/A
1:51 am 01:51 Clear 33 0.6 23 -5 66 66 N N/A 29.96 1015 10 16.0934 N/A
2:51 am 02:51 Clear 31 -0.6 23 -5 72 72 ENE 5 7 29.97 1015 10 16.0934 N/A
3:51 am 03:51 Clear 36 2.2 25 -3.9 64 64 E 3 6 29.96 1015 10 16.0934 N/A
4:51 am 04:51 Clear 32 undefined 24 -4.4 73 73 E 6 9 29.98 1015 10 16.0934 N/A
5:51 am 05:51 Clear 28 -2.2 23 -5 81 81 N N/A 30.01 1016 10 16.0934 N/A
6:51 am 06:51 Clear 30 -1.1 23 -5 75 75 E 6 9 30.03 1017 10 16.0934 N/A
7:51 am 07:51 Sunny 35 1.7 25 -3.9 67 67 SE 5 7 30.04 1017 10 16.0934 N/A
8:51 am 08:51 Sunny 39 3.9 26 -3.3 60 60 SSE 6 9 30.04 1017 10 16.0934 N/A
9:51 am 09:51 Sunny 47 8.3 28 -2.2 48 48 S 8 13 30.04 1017 10 16.0934 N/A
10:51 am 10:51 Sunny 51 10.6 31 -0.6 46 46 SSE 9 15 30 1016 10 16.0934 N/A
11:51 am 11:51 Sunny 56 13.3 32 undefined 40 40 S 7 11 29.97 1015 10 16.0934 N/A
12:51 pm 12:51 Sunny 61 16.1 36 2.2 39 39 SSE 12 19 29.92 1013 10 16.0934 N/A
1:51 pm 13:51 Sunny 62 16.7 36 2.2 38 38 SE 9 15 29.9 1013 10 16.0934 N/A
2:51 pm 14:51 Sunny 65 18.3 36 2.2 34 34 N N/A 29.88 1012 10 16.0934 N/A
3:51 pm 15:51 Sunny 65 18.3 32 undefined 29 29 SSE 6 9 29.87 1011 10 16.0934 N/A
4:51 pm 16:51 Sunny 64 17.8 33 0.6 32 32 W 5 7 29.88 1012 10 16.0934 N/A
5:51 pm 17:51 Clear 59 15 36 2.2 42 42 WNW 6 9 29.92 1013 10 16.0934 N/A
6:51 pm 18:51 Clear 53 11.7 36 2.2 52 52 N N/A 29.94 1014 10 16.0934 N/A
7:51 pm 19:51 Clear 50 10 35 1.7 57 57 W 8 13 29.96 1015 10 16.0934 N/A
8:51 pm 20:51 Clear 45 7.2 32 undefined 61 61 NW 7 11 29.99 1016 10 16.0934 N/A
9:51 pm 21:51 Clear 43 6.1 31 -0.6 63 63 NNW 5 7 29.99 1016 10 16.0934 N/A
10:51 pm 22:51 Clear 44 6.7 30 -1.1 58 58 NW 5 7 30 1016 10 16.0934 N/A
11:51 pm 23:51 Clear 40 4.4 30 -1.1 68 68 NE 3 6 30 1016 10 16.0934 N/A

Powered by AerisWeather